Surface/Precipitation History
05/28/2012 22:30  to  5/29/2012 22:30
Change End Date:
To complete the export process:
1) Select all of the data below
2) Copy the data to the clipboard
3) Open a word processor such as Notepad
4) Paste the data into the word processor
5) Save the file

Date/Time (MDT), SfStatus, SfTemp, SubTemp, FreezeTemp, ChemFactor, ChemPercent, WaterDepth, IcePercent, Conductivity, Salinity, PrecipType, PrecipIntensity, Accumulation, PrecipRate
05/29/2012 22:29, Dry, 52.9, , , , , , , 2, 175 , Other, Other , ,  
05/29/2012 22:21, Dry, 52.9, , , , , , , 2, 166 , Other, Other , ,  
05/29/2012 22:19, Dry, 53.1, , , , , , , 2, 164 , Other, Other , ,  
05/29/2012 22:09, Dry, 53.4, , , , , , , 2, 165 , Other, Other , ,  
05/29/2012 21:59, Dry, 53.8, , , , , , , 2, 160 , Other, Other , ,  
05/29/2012 21:51, Dry, 54.1, , , , , , , 2, 162 , Other, Other , ,  
05/29/2012 21:49, Dry, 54.1, , , , , , , 2, 166 , Other, Other , ,  
05/29/2012 21:39, Dry, 54.5, , , , , , , 2, 161 , Other, Other , ,  
05/29/2012 21:36, Dry, 54.7, , , , , , , 2, 163 , Other, Other , ,  
05/29/2012 21:29, Dry, 54.9, , , , , , , 2, 159 , Other, Other , ,  
05/29/2012 21:21, Dry, 55.4, , , , , , , 2, 156 , Other, Other , ,  
05/29/2012 21:19, Dry, 55.4, , , , , , , 2, 156 , Other, Other , ,  
05/29/2012 21:09, Dry, 55.9, , , , , , , 2, 148 , Other, Other , ,  
05/29/2012 20:59, Dry, 56.7, , , , , , , 2, 142 , Other, Other , ,  
05/29/2012 20:51, Dry, 57.4, , , , , , , 2, 135 , Other, Other , ,  
05/29/2012 20:49, Dry, 57.4, , , , , , , 2, 134 , Other, Other , ,  
05/29/2012 20:39, Dry, 57.9, , , , , , , 2, 129 , Other, Other , ,  
05/29/2012 20:37, Dry, 58.3, , , , , , , 2, 128 , Other, Other , ,  
05/29/2012 20:29, Dry, 59, , , , , , , 1, 73 , Other, Other , ,  
05/29/2012 20:21, Dry, 59.9, , , , , , , 1, 66 , Other, Other , ,  
05/29/2012 20:19, Dry, 60.3, , , , , , , 1, 66 , Other, Other , ,  
05/29/2012 20:09, Dry, 60.8, , , , , , , 2, 110 , Other, Other , ,  
05/29/2012 20:06, Dry, 61, , , , , , , 2, 110 , Other, Other , ,  
05/29/2012 19:59, Dry, 61.3, , , , , , , 1, 101 , Other, Other , ,  
05/29/2012 19:51, Dry, 62.1, , , , , , , 1, 97 , Other, Other , ,  
05/29/2012 19:49, Dry, 62.4, , , , , , , 1, 96 , Other, Other , ,  
05/29/2012 19:39, Dry, 64, , , , , , , 1, 63 , Other, Other , ,  
05/29/2012 19:37, Dry, 64.6, , , , , , , 1, 58 , Other, Other , ,  
05/29/2012 19:28, Dry, 66, , , , , , , 1, 57 , Other, Other , ,  
05/29/2012 19:21, Dry, 66.6, , , , , , , 1, 62 , Other, Other , ,  
05/29/2012 19:18, Dry, 66.7, , , , , , , 1, 62 , Other, Other , ,  
05/29/2012 19:08, Dry, 67.5, , , , , , , 1, 56 , Other, Other , ,  
05/29/2012 19:08, Dry, 67.6, , , , , , , 1, 56 , Other, Other , ,  
05/29/2012 18:58, Dry, 69.3, , , , , , , 1, 55 , Other, Other , ,  
05/29/2012 18:51, Dry, 68.5, , , , , , , 1, 61 , Other, Other , ,  
05/29/2012 18:48, Dry, 68.2, , , , , , , 1, 61 , Other, Other , ,  
05/29/2012 18:38, Dry, 69.6, , , , , , , 1, 58 , Other, Other , ,  
05/29/2012 18:37, Dry, 69.6, , , , , , , 1, 58 , Other, Other , ,  
05/29/2012 18:28, Dry, 71.6, , , , , , , 1, 90 , Other, Other , ,  
05/29/2012 18:21, Dry, 72.3, , , , , , , 1, 91 , Other, Other , ,  
05/29/2012 18:18, Dry, 73.2, , , , , , , 1, 90 , Other, Other , ,  
05/29/2012 18:08, Dry, 73.8, , , , , , , 1, 75 , Other, Other , ,  
05/29/2012 18:07, Dry, 73, , , , , , , 1, 77 , Other, Other , ,  
05/29/2012 17:58, Dry, 69.1, , , , , , , 1, 89 , Other, Other , ,  
05/29/2012 17:51, Dry, 68.2, , , , , , , 1, 38 , Other, Other , ,  
05/29/2012 17:48, Dry, 67.8, , , , , , , 1, 39 , Other, Other , ,  
05/29/2012 17:38, Dry, 69.6, , , , , , , 1, 55 , Other, Other , ,  
05/29/2012 17:37, Dry, 69.6, , , , , , , 1, 55 , Other, Other , ,  
05/29/2012 17:28, Dry, 70.9, , , , , , , 1, 58 , Other, Other , ,  
05/29/2012 17:21, Dry, 70.7, , , , , , , 1, 72 , Other, Other , ,  
05/29/2012 17:18, Dry, 70.9, , , , , , , 1, 75 , Other, Other , ,  
05/29/2012 17:08, Dry, 72.3, , , , , , , 1, 79 , Other, Other , ,  
05/29/2012 17:07, Dry, 72.3, , , , , , , 1, 79 , Other, Other , ,  
05/29/2012 16:58, Dry, 75, , , , , , , 1, 88 , Other, Other , ,  
05/29/2012 16:51, Dry, 77.7, , , , , , , 2, 93 , Other, Other , ,  
05/29/2012 16:48, Dry, 78.1, , , , , , , 2, 93 , Other, Other , ,  
05/29/2012 16:38, Dry, 77.2, , , , , , , 2, 109 , Other, Other , ,  
05/29/2012 16:36, Dry, 76.5, , , , , , , 2, 112 , Other, Other , ,  
05/29/2012 16:28, Error, 72.9, , , , , , , 2, 120 , Other, Other , ,  
05/29/2012 16:21, Dry, 69.4, , , , , , , 2, 125 , Other, Other , ,  
05/29/2012 16:18, Dry, 68.4, , , , , , , 2, 126 , Other, Other , ,  
05/29/2012 16:08, Dry, 66, , , , , , , 2, 137 , Other, Other , ,  
05/29/2012 16:08, Dry, 66, , , , , , , 2, 137 , Other, Other , ,  
05/29/2012 15:58, Dry, 65.5, , , , , , , 2, 133 , Other, Other , ,  
05/29/2012 15:51, Dry, 65.7, , , , , , , 2, 133 , Other, Other , ,  
05/29/2012 15:48, Dry, 65.8, , , , , , , 2, 134 , Other, Other , ,  
05/29/2012 15:38, Dry, 66.6, , , , , , , 2, 129 , Other, Other , ,  
05/29/2012 15:28, Dry, 68, , , , , , , 2, 117 , Other, Other , ,  
05/29/2012 15:21, Dry, 67.3, , , , , , , 2, 119 , Other, Other , ,  
05/29/2012 15:18, Dry, 68.2, , , , , , , 2, 117 , Other, Other , ,  
05/29/2012 15:08, Dry, 70.2, , , , , , , 2, 114 , Other, Other , ,  
05/29/2012 15:03, Dry, 69.4, , , , , , , 2, 115 , Other, Other , ,  
05/29/2012 14:58, Dry, 70.3, , , , , , , 2, 115 , Other, Other , ,  
05/29/2012 14:51, Dry, 70.3, , , , , , , 2, 115 , Other, Other , ,  
05/29/2012 14:47, Dry, 72.1, , , , , , , 2, 113 , Other, Other , ,  
05/29/2012 14:37, Error, 74.3, , , , , , , 2, 117 , Other, Other , ,  
05/29/2012 14:33, Dry, 75.9, , , , , , , 2, 114 , Other, Other , ,  
05/29/2012 14:27, Dry, 76.1, , , , , , , 2, 102 , Other, Other , ,  
05/29/2012 14:17, Dry, 72.9, , , , , , , 2, 137 , Other, Other , ,  
05/29/2012 14:10, Wet, 70, , 32, 5 , 1 , 0, 0 , 2, 160 , Other, Other , ,  
05/29/2012 14:07, Error, 67.5, , , , , , , 3, 169 , Other, Other , ,  
05/29/2012 13:57, Error, 64.2, , , , , , , 3, 208 , Other, Other , ,  
05/29/2012 13:51, Error, 63.7, , , , , , , 4, 248 , Other, Other , ,  
05/29/2012 13:47, Error, 66, , , , , , , 5, 334 , Other, Other , ,  
05/29/2012 13:38, Error, 59, , , , , , , 3, 236 , Other, Other , ,  
05/29/2012 13:37, Error, 59, , , , , , , 4, 266 , Other, Other , ,  
05/29/2012 13:27, Error, 57.9, , , , , , , 4, 295 , Other, Other , ,  
05/29/2012 13:21, Error, 58.1, , , , , , , 4, 316 , Other, Other , ,  
05/29/2012 13:17, Error, 58.6, , , , , , , 5, 375 , Other, Other , ,  
05/29/2012 13:08, Wet, 53.8, , 32, 10 , 1 , 0, 0 , 2, 169 , Other, Other , ,  
05/29/2012 13:07, Wet, 54.1, , 32, 10 , 1 , 0, 0 , 2, 168 , Other, Other , ,  
05/29/2012 12:57, Error, 55.9, , , , , , , 2, 163 , Other, Other , ,  
05/29/2012 12:51, Error, 59.4, , , , , , , 2, 172 , Other, Other , ,  
05/29/2012 12:47, Error, 60.3, , , , , , , 2, 176 , Other, Other , ,  
05/29/2012 12:38, Error, 63.9, , , , , , , 3, 216 , Other, Other , ,  
05/29/2012 12:37, Error, 69.4, , , , , , , 3, 207 , Other, Other , ,  
05/29/2012 12:27, Error, 64.2, , , , , , , 3, 222 , Other, Other , ,  
05/29/2012 12:21, Error, 59.9, , , , , , , 3, 219 , Other, Other , ,  
05/29/2012 12:17, Error, 59.2, , , , , , , 2, 157 , Other, Other , ,  
05/29/2012 12:08, Error, 54.3, , , , , , , 2, 145 , Other, Other , ,  
05/29/2012 12:07, Wet, 54.5, , 32, 5 , 0 , 0, 0 , 2, 142 , Other, Other , ,  
05/29/2012 11:57, Error, 59.5, , , , , , , 2, 130 , Other, Other , ,  
05/29/2012 11:50, Error, 62.6, , , , , , , 2, 124 , Other, Other , ,  
05/29/2012 11:47, Error, 64.2, , , , , , , 2, 106 , Other, Other , ,  
05/29/2012 11:38, Error, 67.5, , , , , , , 2, 122 , Other, Other , ,  
05/29/2012 11:37, Error, 66.4, , , , , , , 2, 123 , Other, Other , ,  
05/29/2012 11:27, Error, 64.4, , , , , , , 2, 132 , Other, Other , ,  
05/29/2012 11:21, Error, 64.4, , , , , , , 2, 134 , Other, Other , ,  
05/29/2012 11:17, Error, 63.3, , , , , , , 2, 140 , Other, Other , ,  
05/29/2012 11:07, Error, 65.5, , , , , , , 2, 146 , Other, Other , ,  
05/29/2012 10:57, Error, 61.5, , , , , , , 2, 154 , Other, Other , ,  
05/29/2012 10:53, Error, 60.1, , , , , , , 4, 269 , Other, Other , ,  
05/29/2012 10:47, Error, 62.1, , , , , , , 3, 178 , Other, Other , ,  
05/29/2012 10:38, Error, 63, , , , , , , 5, 322 , Other, Other , ,  
05/29/2012 10:37, Error, 61.9, , , , , , , 3, 246 , Other, Other , ,  
05/29/2012 10:27, Error, 64.2, , , , , , , 2, 152 , Other, Other , ,  
05/29/2012 10:21, Error, 63.1, , , , , , , 2, 159 , Other, Other , ,  
05/29/2012 10:17, Error, 62.6, , , , , , , 3, 177 , Other, Other , ,  
05/29/2012 10:08, Error, 61.5, , , , , , , 3, 233 , Other, Other , ,  
05/29/2012 10:07, Error, 61.7, , , , , , , 3, 178 , Other, Other , ,  
05/29/2012 09:57, Error, 59.2, , , , , , , 3, 188 , Other, Other , ,  
05/29/2012 09:51, Error, 57.6, , , , , , , 3, 256 , Other, Other , ,  
05/29/2012 09:47, Wet, 57.6, , 32, 45 , 1 , 0, 0 , 3, 201 , Other, Other , ,  
05/29/2012 09:37, Error, 54.1, , , , , , , 2, 162 , Other, Other , ,  
05/29/2012 09:37, Error, 53.2, , , , , , , 2, 142 , Other, Other , ,  
05/29/2012 09:27, Wet, 54.7, , 32, 45 , 1 , 0, 0 , 3, 200 , Other, Other , ,  
05/29/2012 09:21, Wet, 56.3, , 32, 40 , 0 , 0, 0 , 1, 79 , Other, Other , ,  
05/29/2012 09:16, Error, 55.9, , , , , , , 2, 118 , Other, Other , ,  
05/29/2012 09:08, Error, 54.3, , , , , , , 1, 38 , Other, Other , ,  
05/29/2012 09:06, Error, 54.1, , , , , , , 0, 36 , Other, Other , ,  
05/29/2012 08:56, Wet, 52, , 32, 40 , 0 , 0, 0 , 0, 39 , Other, Other , ,  
05/29/2012 08:50, Wet, 51.8, , 32, 20 , 0 , 0, 0 , 0, 28 , Other, Other , ,  
05/29/2012 08:46, Wet, 49.8, , 32, 25 , 0 , 0, 0 , 0, 27 , Other, Other , ,  
05/29/2012 08:38, Error, 49.6, , , , , , , 0, 24 , Other, Other , ,  
05/29/2012 08:36, Error, 49.3, , , , , , , 0, 20 , Other, Other , ,  
05/29/2012 08:26, Wet, 50.4, , 32, 25 , 0 , 0, 0 , 0, 19 , Other, Other , ,  
05/29/2012 08:21, Dry, 50.5, , , , , , , 0, 18 , Other, Other , ,  
05/29/2012 08:16, Wet, 49.1, , 32, 45 , 0 , 0, 0 , 0, 17 , Other, Other , ,  
05/29/2012 08:08, Error, 47.3, , , , , , , 0, 17 , Other, Other , ,  
05/29/2012 08:06, Error, 46.8, , , , , , , 0, 17 , Other, Other , ,  
05/29/2012 07:56, Error, 45.1, , , , , , , 0, 17 , Other, Other , ,  
05/29/2012 07:51, Wet, 44.1, , 32, 35 , 0 , 0, 0 , 0, 17 , Other, Other , ,  
05/29/2012 07:46, Error, 43.2, , , , , , , 0, 17 , Other, Other , ,  
05/29/2012 07:38, Error, 42.6, , , , , , , 0, 17 , Other, Other , ,  
05/29/2012 07:36, Error, 42.6, , , , , , , 0, 18 , Other, Other , ,  
05/29/2012 07:26, Wet, 41.9, , 32, 40 , 0 , 0, 0 , 0, 20 , Other, Other , ,  
05/29/2012 07:20, Error, 41.2, , , , , , , 0, 24 , Other, Other , ,  
05/29/2012 07:16, Wet, 40.5, , 32, 30 , 0 , 0, 0 , 0, 26 , Other, Other , ,  
05/29/2012 07:08, Wet, 39.4, , 32, 65 , 0 , 0, 0 , 0, 28 , Other, Other , ,  
05/29/2012 07:06, Wet, 39.2, , 32, 20 , 0 , 0, 0 , 0, 29 , Other, Other , ,  
05/29/2012 06:56, Error, 38.1, , , , , , , 0, 33 , Other, Other , ,  
05/29/2012 06:50, Error, 37.4, , , , , , , 0, 31 , Other, Other , ,  
05/29/2012 06:46, Error, 37, , , , , , , 0, 30 , Other, Other , ,  
05/29/2012 06:37, Error, 36.3, , , , , , , 0, 36 , Other, Other , ,  
05/29/2012 06:36, Wet, 36.3, , 32, 25 , 0 , 0, 0 , 0, 36 , Other, Other , ,  
05/29/2012 06:26, Error, 36.3, , , , , , , 0, 32 , Other, Other , ,  
05/29/2012 06:21, Error, 36.1, , , , , , , 0, 29 , Other, Other , ,  
05/29/2012 06:16, Wet, 36.3, , 32, 20 , 0 , 0, 0 , 0, 30 , Other, Other , ,  
05/29/2012 06:06, Error, 36.3, , , , , , , 0, 37 , Other, Other , ,  
05/29/2012 06:06, Error, 36.3, , , , , , , 0, 37 , Other, Other , ,  
05/29/2012 05:56, Wet, 35.8, , 32, 20 , 0 , 0, 0 , 0, 33 , Other, Other , ,  
05/29/2012 05:51, Wet, 35.6, , 32, 25 , 0 , 0, 0 , 0, 30 , Other, Other , ,  
05/29/2012 05:46, Wet, 35.6, , 32, 20 , 0 , 0, 0 , 0, 34 , Other, Other , ,  
05/29/2012 05:37, Error, 35.6, , , , , , , 0, 36 , Other, Other , ,  
05/29/2012 05:36, Error, 35.8, , , , , , , 0, 36 , Other, Other , ,  
05/29/2012 05:26, Error, 36.3, , , , , , , 0, 30 , Other, Other , ,  
05/29/2012 05:21, Wet, 36.1, , 32, 20 , 0 , 0, 0 , 0, 35 , Other, Other , ,  
05/29/2012 05:16, Wet, 36.3, , 32, 20 , 0 , 0, 0 , 0, 35 , Other, Other , ,  
05/29/2012 05:07, Error, 36.7, , , , , , , 0, 33 , Other, Other , ,  
05/29/2012 05:06, Error, 36.9, , , , , , , 0, 34 , Other, Other , ,  
05/29/2012 04:56, Error, 37.2, , , , , , , 0, 30 , Other, Other , ,  
05/29/2012 04:51, Wet, 37.4, , 32, 20 , 0 , 0, 0 , 0, 24 , Other, Other , ,  
05/29/2012 04:46, Wet, 37.6, , 32, 20 , 0 , 0, 0 , 0, 21 , Other, Other , ,  
05/29/2012 04:37, Wet, 37.9, , 32, 20 , 0 , 0, 0 , 0, 30 , Other, Other , ,  
05/29/2012 04:36, Wet, 37.9, , 32, 25 , 0 , 0, 0 , 0, 28 , Other, Other , ,  
05/29/2012 04:26, Wet, 37.9, , 32, 15 , 0 , 0, 0 , 0, 35 , Other, Other , ,  
05/29/2012 04:21, Wet, 37.9, , 32, 15 , 0 , 0, 0 , 0, 35 , Other, Other , ,  
05/29/2012 04:16, Wet, 37.9, , 32, 20 , 0 , 0, 0 , 0, 34 , Other, Other , ,  
05/29/2012 04:07, Wet, 37.8, , 32, 20 , 0 , 0, 0 , 0, 34 , Other, Other , ,  
05/29/2012 04:06, Wet, 37.9, , 32, 20 , 0 , 0, 0 , 0, 34 , Other, Other , ,  
05/29/2012 03:56, Wet, 37.6, , 32, 40 , 0 , 0, 0 , 0, 35 , Other, Other , ,  
05/29/2012 03:50, Error, 37, , , , , , , 0, 33 , Other, Other , ,  
05/29/2012 03:46, Error, 36.7, , , , , , , 0, 30 , Other, Other , ,  
05/29/2012 03:36, Error, 36.7, , , , , , , 0, 30 , Other, Other , ,  
05/29/2012 03:25, Error, 36.9, , , , , , , 0, 25 , Other, Other , ,  
05/29/2012 03:22, Error, 37, , , , , , , 0, 23 , Other, Other , ,  
05/29/2012 03:15, Wet, 37, , 32, 35 , 0 , 0, 0 , 0, 32 , Other, Other , ,  
05/29/2012 03:07, Error, 37.4, , , , , , , 0, 28 , Other, Other , ,  
05/29/2012 03:05, Error, 37.4, , , , , , , 0, 27 , Other, Other , ,  
05/29/2012 02:55, Error, 37.8, , , , , , , 0, 25 , Other, Other , ,  
05/29/2012 02:50, Error, 37.9, , , , , , , 0, 23 , Other, Other , ,  
05/29/2012 02:45, Error, 38.5, , , , , , , 0, 19 , Other, Other , ,  
05/29/2012 02:36, Wet, 38.7, , 32, 30 , 0 , 0, 0 , 0, 27 , Other, Other , ,  
05/29/2012 02:35, Wet, 38.8, , 32, 30 , 0 , 0, 0 , 0, 28 , Other, Other , ,  
05/29/2012 02:25, Wet, 39, , 32, 45 , 0 , 0, 0 , 0, 24 , Other, Other , ,  
05/29/2012 02:21, Wet, 39.2, , 32, 15 , 0 , 0, 0 , 0, 20 , Other, Other , ,  
05/29/2012 02:15, Error, 39.6, , , , , , , 0, 23 , Other, Other , ,  
05/29/2012 02:05, Error, 39.7, , , , , , , 0, 24 , Other, Other , ,  
05/29/2012 01:55, Error, 39.9, , , , , , , 0, 23 , Other, Other , ,  
05/29/2012 01:51, Wet, 39.9, , 32, 45 , 0 , 0, 0 , 0, 21 , Other, Other , ,  
05/29/2012 01:45, Wet, 40.1, , 32, 10 , 0 , 0, 0 , 0, 17 , Other, Other , ,  
05/29/2012 01:36, Wet, 40.1, , 32, 10 , 0 , 0, 0 , 0, 16 , Other, Other , ,  
05/29/2012 01:35, Wet, 40.3, , 32, 10 , 0 , 0, 0 , 0, 16 , Other, Other , ,  
05/29/2012 01:25, Error, 40.3, , , , , , , 0, 18 , Other, Other , ,  
05/29/2012 01:21, Error, 40.5, , , , , , , 0, 18 , Other, Other , ,  
05/29/2012 01:15, Error, 40.5, , , , , , , 0, 20 , Other, Other , ,  
05/29/2012 01:07, Error, 40.6, , , , , , , 0, 17 , Other, Other , ,  
05/29/2012 01:05, Error, 40.6, , , , , , , 0, 16 , Other, Other , ,  
05/29/2012 00:55, Error, 41.2, , , , , , , 0, 14 , Other, Other , ,  
05/29/2012 00:51, Error, 41.4, , , , , , , 0, 11 , Other, Other , ,  
05/29/2012 00:45, Error, 41.2, , , , , , , 0, 17 , Other, Other , ,  
05/29/2012 00:37, Error, 41.2, , , , , , , 0, 16 , Other, Other , ,  
05/29/2012 00:35, Error, 41.2, , , , , , , 0, 16 , Other, Other , ,  
05/29/2012 00:25, Error, 41.4, , , , , , , 0, 10 , Other, Other , ,  
05/29/2012 00:21, Error, 41.4, , , , , , , 0, 9 , Other, Other , ,  
05/29/2012 00:15, Error, 41.4, , , , , , , 0, 10 , Other, Other , ,  
05/29/2012 00:05, Error, 41.2, , , , , , , 0, 10 , Other, Other , ,  
05/29/2012 00:01, Error, 41.2, , , , , , , 0, 10 , Other, Other , ,  
05/28/2012 23:55, Error, 41.4, , , , , , , 0, 10 , Other, Other , ,  
05/28/2012 23:45, Error, 41.4, , , , , , , 0, 11 , Other, Other , ,  
05/28/2012 23:37, Error, 41.4, , , , , , , 0, 16 , Other, Other , ,  
05/28/2012 23:35, Error, 41.4, , , , , , , 0, 15 , Other, Other , ,  
05/28/2012 23:25, Wet, 41.4, , 32, 15 , 0 , 0, 0 , 0, 9 , Other, Other , ,  
05/28/2012 23:21, Wet, 41.4, , 32, 5 , 0 , 0, 0 , 0, 6 , Other, Other , ,  
05/28/2012 23:15, Error, 41.4, , , , , , , 0, 8 , Other, Other , ,  
05/28/2012 23:05, Error, 41.4, , , , , , , 0, 6 , Other, Other , ,  
05/28/2012 22:55, Wet, 40.8, , 32, 30 , 0 , 0, 0 , 0, 9 , Other, Other , ,  
05/28/2012 22:51, Error, 40.5, , , , , , , 0, 9 , Other, Other , ,  
05/28/2012 22:45, Error, 40.3, , , , , , , 0, 4 , Other, Other , ,  
05/28/2012 22:35, Wet, 40.1, , 32, 25 , 0 , 0, 0 , 0, 8 , Other, Other , ,  
Change End Date:
Copyright © 1998-2005 Surface Systems, Inc.
All Rights Reserved
Send comments about the data to:
SCAN Web ® is a registered trademark of Surface Systems, Inc.
SCAN Web Version 5.6